Weather in Tomtor

Russia / Sakha (Yakutia) Republic     62°39′20″N   132°55′19″E
temp.,
°C
wind,
m/s
gust,
m/s
humid.,
%
clouds,
%
prec.,
mm/h
press.,
hPa
HPBL,
m
5 december, sun
sun500:00−33e4988100 0.0 1005234
03:00−31e3898100 0.1 1003234
06:00−29e3698100 0.4 1002197
09:00−28e2598100 0.6 1001175
12:00−25ese249598 0.1 1001224
15:00−24e2498100 0.2 1001234
18:00−24ene1399100 0.4 1001140
21:00−25ne1110074 0.6 10029
6 december, mon
mon600:00−29sse00100100 0.0 10039
03:00−29wsw00100100 0.0 100413
06:00−25wnw1299100 0.2 100574
09:00−24w2798100 0.3 1006269
12:00−23w41093100 0.1 1008548
15:00−23wsw2695100 0.1 1010277
18:00−28wsw279992 0.0 1013129
21:00−31w2598100 0.0 101593
7 december, tue
tue700:00−31w1498100 0.0 1015135
03:00−32w2597100 0.1 1016197
06:00−34w2598100 0.0 1016190
09:00−36wsw11100100 0.1 101732
12:00−35wnw129792 0.0 1018116
15:00−40wnw1110051 0.0 10198
18:00−44wnw1110053 0.0 10228
21:00−45w1110052 0.0 102411
8 december, wed
wed800:00−45wsw1110051 0.0 102617
03:00−46wsw1110053 0.0 10288
06:00−46s1110053 0.0 10299
09:00−46se1110056 0.0 10319
12:00−41e239850 0.0 103182
15:00−41ene279948 0.0 1030110
18:00−41ene379948 0.0 1030119
21:00−41e389733 0.0 1028137
9 december, thu
thu900:00−39e31095100 0.0 1026180
03:00−35e31088100 0.0 1022220
06:00−32e4989100 0.0 1019217
09:00−30e3798100 0.4 1017193
12:00−27ese2396100 0.3 1016176
15:00−26sw0099100 0.4 101727
18:00−29wsw1110091 0.1 101830
21:00−30wsw259982 0.1 1020124